User: anonymous   Login
Location: Platte
(43.3870°N, 98.8440°W)
Time: 17:06:44
(UTC-06:00)
Language:

Landsat 7 - Orbit

View from above orbital plane
View from above orbital plane
View from above satellite
View from above satellite

Ground track
Ground track

The orbit data is extracted from the following two-line orbital elements,

1 25682U 99020A   17324.28029416 -.00000088  00000-0 -94508-5 0  9991
2 25682  98.1943  33.1388 0000559  65.7762 294.3493 14.57117188989325
Epoch (UTC): 20 November 2017 06:43:37
Eccentricity: 0.0000559
inclination: 98.1943°
perigee height: 702 km
apogee height: 703 km
right ascension of ascending node: 33.1388°
argument of perigee: 65.7762°
revolutions per day: 14.57117188
mean anomaly at epoch: 294.3493°
orbit number at epoch: 98932

The dashed part of the orbit path shows where the satellite is in the earth's shadow,  

DLR